Date String (YYYY-MM-DD hh:mm:ss) UTC,Instrument flags,absolute air pressure of the measurement (hPa),sample flow rate (lpm),inlet stack bypass flow (lpm),air temperature of the measurement (°C),ambient temperature measured by the external sensor (°C),aerosol sample conditioner tube jacket temperature (°C),OPC LED temperature (°C),internal box temperature (°C),relative humidity of the measurement (%),span deviation,mass concentration of particles derived from Lorenz-Mie calculation of OPC scattering (μg/m³),mass concentration of particles derived from Lorenz-Mie calculation of OPC scattering (μg/m³),mass concentration of particles derived from Lorenz-Mie calculation of OPC scattering (μg/m³)
DateTimeUTC,F1_M11,P_M11,Q1_M11,Q2_M11,T1_M11,T2_M11,T3_M11,T4_M11,T5_M11,U1_M11,ZSPAN_M11,X0_M11,X2_M11,X1_M11
2024-02-10 01:00:00,SystemResetWarning,0822.9,4.99,000.00,021.6,021.0,000.0,030.1,023.4,16.2,0000.0,0010.67,0004.62,0004.14
2024-02-10 01:01:00,SystemResetWarning,0822.9,5.00,000.00,021.6,021.0,000.0,030.1,023.4,16.2,0000.0,0010.19,0004.62,0004.12
2024-02-10 01:02:00,SystemResetWarning,0822.9,5.01,000.00,021.6,021.0,000.0,030.1,023.4,16.2,0000.0,0009.54,0004.63,0004.12
2024-02-10 01:03:00,SystemResetWarning,0822.9,5.00,000.00,021.6,021.0,000.0,030.0,023.3,16.2,0000.0,0009.37,0004.63,0004.12
2024-02-10 01:04:00,SystemResetWarning,0823.0,5.00,000.00,021.6,021.0,000.0,030.0,023.3,16.3,0000.0,0009.53,0004.64,0004.12
2024-02-10 01:05:00,SystemResetWarning,0822.9,5.00,000.00,021.5,020.9,000.0,030.0,023.3,16.3,0000.0,0008.97,0004.63,0004.11
2024-02-10 01:06:00,SystemResetWarning,0823.0,4.99,000.00,021.5,020.9,000.0,030.0,023.3,16.3,0000.0,0008.91,0004.62,0004.10
2024-02-10 01:07:00,SystemResetWarning,0822.9,4.99,000.00,021.5,020.9,000.0,030.0,023.3,16.3,0000.0,0008.52,0004.58,0004.10
2024-02-10 01:08:00,SystemResetWarning,0822.9,5.00,000.00,021.5,020.9,000.0,030.0,023.3,16.3,0000.0,0008.82,0004.56,0004.09
2024-02-10 01:09:00,SystemResetWarning,0823.0,5.00,000.00,021.5,020.9,000.0,030.0,023.3,16.3,0000.0,0008.42,0004.55,0004.09
2024-02-10 01:10:00,SystemResetWarning,0823.0,5.00,000.00,021.5,020.9,000.0,030.0,023.3,16.2,0000.0,0008.29,0004.55,0004.08
2024-02-10 01:11:00,SystemResetWarning,0823.0,5.00,000.00,021.5,020.9,000.0,030.0,023.3,16.5,0000.0,0008.35,0004.53,0004.08
2024-02-10 01:12:00,SystemResetWarning,0823.0,4.99,000.00,021.5,020.9,000.0,030.0,023.3,16.5,0000.0,0008.51,0004.52,0004.09
2024-02-10 01:13:00,SystemResetWarning,0823.0,4.99,000.00,021.5,020.9,000.0,030.0,023.3,16.5,0000.0,0009.09,0004.53,0004.10
2024-02-10 01:14:00,SystemResetWarning,0823.0,5.00,000.00,021.5,020.9,000.0,030.0,023.3,16.5,0000.0,0009.62,0004.52,0004.10
2024-02-10 01:15:00,SystemResetWarning,0823.0,5.00,000.00,021.5,020.9,000.0,030.0,023.3,16.4,0000.0,0009.85,0004.49,0004.10
2024-02-10 01:16:00,SystemResetWarning,0823.0,5.01,000.00,021.5,020.9,000.0,030.0,023.3,16.3,0000.0,0010.28,0004.49,0004.10
2024-02-10 01:17:00,SystemResetWarning,0823.0,5.00,000.00,021.5,020.9,000.0,030.0,023.2,16.3,0000.0,0010.84,0004.48,0004.09
2024-02-10 01:18:00,SystemResetWarning,0823.0,5.00,000.00,021.4,020.9,000.0,030.0,023.2,16.4,0000.0,0011.43,0004.51,0004.10
2024-02-10 01:19:00,SystemResetWarning,0823.0,5.00,000.00,021.4,020.9,000.0,029.9,023.2,16.3,0000.0,0011.07,0004.52,0004.10
2024-02-10 01:20:00,SystemResetWarning,0823.0,5.00,000.00,021.4,020.8,000.0,029.9,023.2,16.3,0000.0,0011.04,0004.54,0004.13
2024-02-10 01:21:00,SystemResetWarning,0823.0,5.00,000.00,021.4,020.8,000.0,029.9,023.2,16.3,0000.0,0011.03,0004.54,0004.15
2024-02-10 01:22:00,SystemResetWarning,0823.0,5.00,000.00,021.4,020.8,000.0,029.9,023.2,16.2,0000.0,0010.88,0004.53,0004.16
2024-02-10 01:23:00,SystemResetWarning,0823.0,5.00,000.00,021.4,020.8,000.0,029.9,023.2,16.2,0000.0,0010.55,0004.50,0004.17
2024-02-10 01:24:00,SystemResetWarning,0823.0,4.99,000.00,021.4,020.8,000.0,029.9,023.2,16.2,0000.0,0009.90,0004.49,0004.17
2024-02-10 01:25:00,SystemResetWarning,0823.1,5.00,000.00,021.4,020.8,000.0,029.9,023.2,16.2,0000.0,0009.47,0004.50,0004.17
2024-02-10 01:26:00,SystemResetWarning,0823.1,5.00,000.00,021.4,020.8,000.0,029.9,023.2,16.2,0000.0,0009.17,0004.52,0004.18
2024-02-10 01:27:00,SystemResetWarning,0823.1,5.00,000.00,021.4,020.8,000.0,029.9,023.2,16.1,0000.0,0008.77,0004.56,0004.19
2024-02-10 01:28:00,SystemResetWarning,0823.1,5.01,000.00,021.4,020.8,000.0,029.9,023.2,16.1,0000.0,0008.33,0004.59,0004.20
2024-02-10 01:29:00,SystemResetWarning,0823.1,5.00,000.00,021.4,020.8,000.0,029.9,023.2,16.0,0000.0,0008.07,0004.60,0004.20
2024-02-10 01:30:00,SystemResetWarning,0823.1,5.00,000.00,021.4,020.8,000.0,029.9,023.2,16.1,0000.0,0008.20,0004.61,0004.19
2024-02-10 01:31:00,SystemResetWarning,0823.1,5.00,000.00,021.4,020.8,000.0,029.9,023.2,16.1,0000.0,0008.25,0004.61,0004.17
2024-02-10 01:32:00,SystemResetWarning,0823.1,5.01,000.00,021.4,020.7,000.0,029.9,023.2,15.9,0000.0,0008.31,0004.63,0004.16
2024-02-10 01:33:00,SystemResetWarning,0823.1,5.00,000.00,021.4,020.7,000.0,029.9,023.2,15.8,0000.0,0009.04,0004.62,0004.15
2024-02-10 01:34:00,SystemResetWarning,0823.1,5.00,000.00,021.4,020.7,000.0,029.9,023.2,15.8,0000.0,0009.12,0004.64,0004.14
2024-02-10 01:35:00,SystemResetWarning,0823.3,4.99,000.00,021.3,020.7,000.0,029.9,023.2,15.8,0000.0,0009.23,0004.66,0004.14
2024-02-10 01:36:00,SystemResetWarning,0823.1,5.00,000.00,021.3,020.7,000.0,029.8,023.2,15.8,0000.0,0009.04,0004.64,0004.13
2024-02-10 01:37:00,SystemResetWarning,0823.1,5.00,000.00,021.3,020.7,000.0,029.8,023.2,15.8,0000.0,0009.06,0004.63,0004.12
2024-02-10 01:38:00,SystemResetWarning,0823.2,5.01,000.00,021.3,020.7,000.0,029.8,023.1,15.8,0000.0,0009.00,0004.61,0004.10
2024-02-10 01:39:00,SystemResetWarning,0823.1,5.01,000.00,021.3,020.7,000.0,029.8,023.1,15.8,0000.0,0009.37,0004.59,0004.08
2024-02-10 01:40:00,SystemResetWarning,0823.2,4.98,000.00,021.3,020.7,000.0,029.8,023.1,15.8,0000.0,0009.25,0004.56,0004.07
2024-02-10 01:41:00,SystemResetWarning,0823.2,4.99,000.00,021.3,020.7,000.0,029.8,023.2,15.8,0000.0,0009.01,0004.51,0004.06
2024-02-10 01:42:00,SystemResetWarning,0823.3,5.01,000.00,021.3,020.7,000.0,029.8,023.2,15.8,0000.0,0009.23,0004.51,0004.05
2024-02-10 01:43:00,SystemResetWarning,0823.3,5.01,000.00,021.3,020.7,000.0,029.8,023.1,15.8,0000.0,0009.21,0004.47,0004.05
2024-02-10 01:44:00,SystemResetWarning,0823.3,5.00,000.00,021.3,020.7,000.0,029.8,023.1,15.8,0000.0,0008.40,0004.45,0004.03
2024-02-10 01:45:00,SystemResetWarning,0823.3,5.01,000.00,021.3,020.7,000.0,029.8,023.1,15.9,0000.0,0008.43,0004.42,0004.02
2024-02-10 01:46:00,SystemResetWarning,0823.3,4.99,000.00,021.3,020.7,000.0,029.8,023.1,15.9,0000.0,0008.51,0004.40,0004.01
2024-02-10 01:47:00,SystemResetWarning,0823.3,5.00,000.00,021.3,020.7,000.0,029.8,023.1,15.9,0000.0,0008.59,0004.43,0004.01
2024-02-10 01:48:00,SystemResetWarning,0823.3,4.99,000.00,021.3,020.7,000.0,029.8,023.1,16.0,0000.0,0008.56,0004.44,0004.01
2024-02-10 01:49:00,SystemResetWarning,0823.3,4.99,000.00,021.3,020.7,000.0,029.8,023.1,16.0,0000.0,0008.53,0004.44,0004.03
2024-02-10 01:50:00,SystemResetWarning,0823.3,5.00,000.00,021.3,020.7,000.0,029.8,023.1,16.0,0000.0,0008.02,0004.42,0004.05
2024-02-10 01:51:00,SystemResetWarning,0823.3,5.01,000.00,021.3,020.7,000.0,029.8,023.1,16.0,0000.0,0007.89,0004.44,0004.06
2024-02-10 01:52:00,SystemResetWarning,0823.3,5.00,000.00,021.3,020.6,000.0,029.8,023.1,16.0,0000.0,0008.25,0004.52,0004.09
2024-02-10 01:53:00,SystemResetWarning,0823.3,5.01,000.00,021.2,020.6,000.0,029.8,023.1,16.0,0000.0,0008.73,0004.53,0004.11
2024-02-10 01:54:00,SystemResetWarning,0823.4,5.00,000.00,021.3,020.7,000.0,029.8,023.1,16.0,0000.0,0009.14,0004.55,0004.12
2024-02-10 01:55:00,SystemResetWarning,0823.4,5.00,000.00,021.2,020.6,000.0,029.8,023.1,16.1,0000.0,0009.55,0004.63,0004.15
2024-02-10 01:56:00,SystemResetWarning,0823.4,5.00,000.00,021.2,020.6,000.0,029.8,023.1,16.2,0000.0,0010.21,0004.67,0004.18
2024-02-10 01:57:00,SystemResetWarning,0823.4,5.00,000.00,021.2,020.6,000.0,029.8,023.1,16.2,0000.0,0010.04,0004.67,0004.21
2024-02-10 01:58:00,SystemResetWarning,0823.4,5.00,000.00,021.2,020.6,000.0,029.8,023.1,16.2,0000.0,0010.04,0004.68,0004.23
2024-02-10 01:59:00,SystemResetWarning,0823.4,4.99,000.00,021.2,020.6,000.0,029.8,023.1,16.2,0000.0,0009.99,0004.70,0004.26
